Nantucket, MA

7:07 PM EST on February 27, 2017 (GMT -0500)
Nantucket Memorial

Weather History for KACK - November, 2010

Change the Weather History Date:

Wednesday, November 17, 2010

  Actual Average Record
Temperature  
Mean Temperature 55 °F -  
Max Temperature 59 °F 50 °F 63 °F (1954)
Min Temperature 51 °F 34 °F 20 °F (1972)
Degree Days  
Heating Degree Days 10    
Growing Degree Days 5 (Base 50)    
Moisture  
Dew Point 51 °F    
Average Humidity 88    
Maximum Humidity 100    
Minimum Humidity 59    
Precipitation  
Precipitation 0.75 in - - ()
Sea Level Pressure  
Sea Level Pressure 29.71 in    
Wind  
Wind Speed 18 mph (SSE)    
Max Wind Speed 32 mph    
Max Gust Speed 41 mph    
Visibility 7 miles    
Events Rain    
Averages and records for this station are not official NWS values.
T = Trace of Precipitation, MM = Missing Value Source: NWS Daily Summary

Daily Weather History Graph

Daily Weather History Graph

Search for Another Location

Airport or City:

Trip Planner

Search our weather history database for the weather conditions in past years. The results will help you decide how hot, cold, wet, or windy it might be!

Date:

Astronomy

Nov. 17, 2010 Rise Set
Actual Time 6:30 AM EST 4:19 PM EST
Civil Twilight 6:00 AM EST 4:49 PM EST
Nautical Twilight 5:27 AM EST 5:22 PM EST
Astronomical Twilight 4:54 AM EST 5:55 PM EST
Moon 1:51 PM EST (11/17) 2:24 AM EST (11/17)
Length of Visible Light 10h 48m
Length of Day
9h 48m
Waxing Gibbous, 85% of the Moon is Illuminated
Nov 17
Waxing Gibbous
Nov 21
Full
Nov 28
Last Quarter
Dec 5
New
Dec 13
First Quarter

Hourly Weather History & Observations

Time (EST) Temp. Dew Point Humidity Pressure Visibility Wind Dir Wind Speed Gust Speed Precip Events Conditions
12:07 AM 51.8 °F 50.0 °F 94% 29.97 in 10.0 mi East 12.7 mph 19.6 mph 0.00 in Rain Light Rain
12:18 AM 51.8 °F 51.8 °F 100% 29.96 in 10.0 mi East 11.5 mph - 0.00 in Rain Light Rain
12:28 AM 51.8 °F 51.8 °F 100% 29.95 in 10.0 mi East 10.4 mph - 0.00 in   Overcast
12:53 AM 51.1 °F 51.1 °F 100% 29.92 in 10.0 mi East 13.8 mph - 0.00 in   Mostly Cloudy
1:18 AM 51.8 °F 51.8 °F 100% 29.88 in 10.0 mi East 18.4 mph 24.2 mph N/A   Overcast
1:53 AM 53.1 °F 51.1 °F 93% 29.86 in 9.0 mi East 19.6 mph 26.5 mph N/A   Mostly Cloudy
2:21 AM 53.6 °F 51.8 °F 94% 29.85 in 9.0 mi ESE 18.4 mph 25.3 mph N/A   Overcast
2:34 AM 53.6 °F 51.8 °F 94% 29.83 in 9.0 mi East 20.7 mph - N/A   Overcast
2:44 AM 53.6 °F 51.8 °F 94% 29.82 in 9.0 mi ESE 19.6 mph 26.5 mph N/A   Overcast
2:53 AM 53.1 °F 52.0 °F 96% 29.82 in 9.0 mi ESE 20.7 mph 26.5 mph N/A   Overcast
3:53 AM 55.0 °F 53.1 °F 93% 29.76 in 8.0 mi ESE 20.7 mph 26.5 mph 0.00 in   Overcast
4:45 AM 55.4 °F 53.6 °F 94% 29.73 in 7.0 mi SE 17.3 mph - 0.02 in Rain Light Rain
4:53 AM 55.0 °F 54.0 °F 96% 29.72 in 5.0 mi SE 18.4 mph - 0.03 in Rain Rain
5:02 AM 55.4 °F 55.4 °F 100% 29.72 in 2.5 mi SE 17.3 mph 25.3 mph 0.08 in Rain Heavy Rain
5:14 AM 57.2 °F 55.4 °F 94% 29.71 in 3.0 mi SE 21.9 mph 28.8 mph 0.13 in Rain Rain
5:25 AM 57.2 °F 55.4 °F 94% 29.70 in 2.5 mi SSE 19.6 mph - 0.18 in Rain Heavy Rain
5:43 AM 57.2 °F 55.4 °F 94% 29.69 in 2.5 mi SSE 19.6 mph - 0.25 in Rain Heavy Rain
5:53 AM 57.0 °F 55.9 °F 96% 29.68 in 2.5 mi SSE 17.3 mph - 0.29 in Rain Rain
6:19 AM 55.4 °F 55.4 °F 100% 29.67 in 2.0 mi SSE 17.3 mph - 0.10 in Rain Heavy Rain
6:38 AM 55.4 °F 55.4 °F 100% 29.65 in 1.8 mi SSE 20.7 mph 27.6 mph 0.22 in Rain Heavy Rain
6:53 AM 57.0 °F 55.9 °F 96% 29.66 in 3.0 mi SSE 18.4 mph 28.8 mph 0.25 in Rain Rain
7:45 AM 57.2 °F 57.2 °F 100% 29.64 in 2.5 mi South 18.4 mph - 0.09 in Rain Light Rain
7:53 AM 57.0 °F 55.9 °F 96% 29.64 in 2.5 mi South 19.6 mph - 0.10 in Rain Light Rain
8:53 AM 57.0 °F 55.9 °F 96% 29.60 in 2.5 mi South 18.4 mph 28.8 mph 0.07 in Rain Light Rain
9:00 AM 57.2 °F 55.4 °F 94% 29.60 in 2.5 mi South 18.4 mph - 0.00 in Rain Light Rain
9:33 AM 57.2 °F 55.4 °F 94% 29.59 in 4.0 mi South 18.4 mph 25.3 mph 0.01 in   Mostly Cloudy
9:53 AM 55.9 °F 55.0 °F 97% 29.58 in 4.0 mi South 16.1 mph - 0.01 in   Partly Cloudy
10:53 AM 59.0 °F 55.9 °F 90% 29.57 in 6.0 mi South 21.9 mph 31.1 mph N/A   Clear
12:53 PM 57.9 °F 51.1 °F 78% 29.55 in 7.0 mi SW 21.9 mph 28.8 mph N/A   Clear
1:53 PM 57.0 °F 51.1 °F 81% 29.56 in 7.0 mi SW 20.7 mph 29.9 mph N/A   Clear
2:53 PM 55.9 °F 50.0 °F 80% 29.57 in 8.0 mi SW 23.0 mph 31.1 mph N/A   Clear
3:53 PM 54.0 °F 46.0 °F 75% 29.59 in 9.0 mi SW 25.3 mph - N/A   Clear
4:53 PM 53.1 °F 45.0 °F 74% 29.60 in 9.0 mi WSW 25.3 mph 32.2 mph N/A   Clear
5:53 PM 54.0 °F 45.0 °F 72% 29.63 in 8.0 mi WSW 25.3 mph 32.2 mph N/A   Clear
6:53 PM 53.1 °F 45.0 °F 74% 29.65 in 8.0 mi WSW 25.3 mph 34.5 mph N/A   Scattered Clouds
7:53 PM 54.0 °F 43.0 °F 66% 29.66 in 10.0 mi WSW 27.6 mph 36.8 mph N/A   Clear
8:53 PM 54.0 °F 39.9 °F 59% 29.68 in 10.0 mi WSW 25.3 mph 40.3 mph N/A   Clear
9:53 PM 53.1 °F 39.9 °F 61% 29.70 in 10.0 mi West 32.2 mph 40.3 mph N/A   Clear
10:53 PM 52.0 °F 39.9 °F 63% 29.71 in 10.0 mi WSW 31.1 mph 40.3 mph N/A   Partly Cloudy
11:53 PM 52.0 °F 37.9 °F 59% 29.73 in 10.0 mi West 28.8 mph 41.4 mph N/A   Clear